Alta, CA

2:02 PM PST on February 27, 2017 (GMT -0800)
Blue Canyon-Nyack

Weather History for KBLU - March, 2013

Change the Weather History Date:

Monday, March 11, 2013

  Actual Average Record
Temperature  
Mean Temperature 52 °F -  
Max Temperature 60 °F 43 °F 68 °F (2007)
Min Temperature 46 °F 31 °F 13 °F (1954)
Degree Days  
Heating Degree Days 12    
Growing Degree Days 2 (Base 50)    
Moisture  
Dew Point 21 °F    
Average Humidity 31    
Maximum Humidity 53    
Minimum Humidity 16    
Precipitation  
Precipitation 0.00 in - - ()
Sea Level Pressure  
Sea Level Pressure 30.14 in    
Wind  
Wind Speed 4 mph (North)    
Max Wind Speed 7 mph    
Max Gust Speed -    
Visibility 10 miles    
Events      
Averages and records for this station are not official NWS values.
T = Trace of Precipitation, MM = Missing Value Source: NWS Daily Summary

Daily Weather History Graph

Daily Weather History Graph

Search for Another Location

Airport or City:

Trip Planner

Search our weather history database for the weather conditions in past years. The results will help you decide how hot, cold, wet, or windy it might be!

Date:

Astronomy

Mar. 11, 2013 Rise Set
Actual Time 7:19 AM PDT 7:06 PM PDT
Civil Twilight 6:53 AM PDT 7:32 PM PDT
Nautical Twilight 6:22 AM PDT 8:03 PM PDT
Astronomical Twilight 5:50 AM PDT 8:35 PM PDT
Moon 6:56 AM PDT (3/11) 7:23 PM PDT (3/11)
Length of Visible Light 12h 39m
Length of Day
11h 46m
Waning Crescent, 0% of the Moon is Illuminated
Mar 11
Waning Crescent
Mar 11
New
Mar 19
First Quarter
Mar 27
Full
Apr 2
Last Quarter

Hourly Weather History & Observations

Time (PDT) Temp. Dew Point Humidity Pressure Visibility Wind Dir Wind Speed Gust Speed Precip Events Conditions
12:52 AM 46.9 °F 15.1 °F 28% 30.21 in 10.0 mi Calm Calm - N/A   Clear
1:52 AM 48.0 °F 7.0 °F 19% 30.18 in 10.0 mi East 5.8 mph - N/A   Clear
2:52 AM 50.0 °F 5.0 °F 16% 30.17 in 10.0 mi NE 5.8 mph - N/A   Clear
3:52 AM 48.9 °F 6.1 °F 18% 30.16 in 10.0 mi Variable 3.5 mph - N/A   Clear
4:52 AM 48.9 °F 5.0 °F 17% 30.19 in 10.0 mi North 3.5 mph - N/A   Clear
5:52 AM 48.0 °F 8.1 °F 20% 30.18 in 10.0 mi NE 4.6 mph - N/A   Clear
6:52 AM 50.0 °F 6.1 °F 17% 30.18 in 10.0 mi NE 6.9 mph - N/A   Clear
7:52 AM 50.0 °F 9.0 °F 19% 30.18 in 10.0 mi NE 6.9 mph - N/A   Clear
8:52 AM 53.1 °F 12.9 °F 20% 30.18 in 10.0 mi Variable 4.6 mph - N/A   Clear
9:52 AM 57.0 °F 15.1 °F 19% 30.17 in 10.0 mi Calm Calm - N/A   Clear
10:52 AM 59.0 °F 19.9 °F 22% 30.14 in 10.0 mi NNW 5.8 mph - N/A   Clear
11:52 AM 55.9 °F 26.1 °F 32% 30.15 in 10.0 mi WNW 3.5 mph - N/A   Clear
12:52 PM 57.0 °F 33.1 °F 40% 30.15 in 10.0 mi West 5.8 mph - N/A   Clear
1:52 PM 57.0 °F 35.1 °F 44% 30.12 in 10.0 mi West 5.8 mph - N/A   Clear
2:52 PM 57.0 °F 37.0 °F 47% 30.09 in 10.0 mi Variable 6.9 mph - N/A   Clear
3:52 PM 57.0 °F 37.9 °F 49% 30.11 in 10.0 mi WSW 5.8 mph - N/A   Clear
4:52 PM 55.9 °F 39.0 °F 53% 30.10 in 10.0 mi West 5.8 mph - N/A   Clear
9:52 PM 52.0 °F 35.1 °F 53% 30.08 in 10.0 mi NE 5.8 mph - N/A   Clear
10:52 PM 53.1 °F 34.0 °F 48% 30.07 in 10.0 mi NE 4.6 mph - N/A   Clear
11:52 PM 52.0 °F 27.0 °F 38% 30.08 in 10.0 mi NE 6.9 mph - N/A   Clear